Weather History for KPEX - July, 2013

Change the Weather History Date:

Monday, July 8, 2013

  Actual Average (KLJF) Record (KLJF)
Temperature  
Mean Temperature 74 °F -  
Max Temperature 84 °F 84 °F 100 °F (1974)
Min Temperature 63 °F 62 °F 43 °F (1958)
Cooling Degree Days 8    
Growing Degree Days 24 (Base 50)    
Moisture  
Dew Point 63 °F    
Average Humidity 73    
Maximum Humidity 96    
Minimum Humidity 35    
Precipitation  
Precipitation 0.00 in - - ()
Sea Level Pressure  
Sea Level Pressure 29.98 in    
Wind  
Wind Speed 1 mph (East)    
Max Wind Speed 8 mph    
Max Gust Speed -    
Visibility 9 miles    
Events Fog    
Averages and records for this station are not official NWS values.
T = Trace of Precipitation, MM = Missing Value Source: NWS Daily Summary

Daily Weather History Graph

Daily Weather History Graph

Search for Another Location

Airport or City:

Trip Planner

Search our weather history database for the weather conditions in past years. The results will help you decide how hot, cold, wet, or windy it might be!

Date:

Astronomy

Jul. 08, 2013 Rise Set
Actual Time 5:39 AM CDT 9:08 PM CDT
Civil Twilight 5:02 AM CDT 9:45 PM CDT
Nautical Twilight 4:13 AM CDT 10:33 PM CDT
Astronomical Twilight 3:10 AM CDT 11:36 PM CDT
Moon 6:14 AM CDT (7/8) 9:05 PM CDT (7/8)
Length of Visible Light 16h 42m
Length of Day
15h 28m
New Moon, 0% of the Moon is Illuminated
Jul 8
New Moon
Jul 15
First Quarter
Jul 22
Full
Jul 29
Last Quarter
Aug 6
New

Hourly Weather History & Observations

Time (CDT) Temp. Heat Index Dew Point Humidity Pressure Visibility Wind Dir Wind Speed Gust Speed Precip Events Conditions
12:13 AM 67.6 °F - 66.2 °F 95% 29.94 in 10.0 mi Calm Calm - N/A   Clear
12:33 AM 67.1 °F - 65.7 °F 95% 29.94 in 7.0 mi Calm Calm - N/A   Clear
12:53 AM 67.8 °F - 65.8 °F 93% 29.95 in 10.0 mi Calm Calm - N/A   Clear
1:13 AM 67.1 °F - 65.5 °F 95% 29.95 in 7.0 mi Calm Calm - N/A   Clear
1:33 AM 66.6 °F - 65.3 °F 96% 29.95 in 7.0 mi Calm Calm - N/A   Clear
1:53 AM 67.1 °F - 65.5 °F 95% 29.96 in 10.0 mi Calm Calm - N/A   Clear
2:13 AM 68.2 °F - 65.3 °F 90% 29.96 in 10.0 mi Calm Calm - N/A   Clear
2:33 AM 68.2 °F - 64.4 °F 88% 29.95 in 10.0 mi Calm Calm - N/A   Clear
2:53 AM 68.0 °F - 64.0 °F 87% 29.96 in 10.0 mi Calm Calm - N/A   Clear
3:13 AM 67.1 °F - 64.0 °F 90% 29.95 in 10.0 mi Calm Calm - N/A   Clear
3:33 AM 66.2 °F - 63.7 °F 92% 29.95 in 10.0 mi Calm Calm - N/A   Clear
3:53 AM 64.4 °F - 62.6 °F 94% 29.96 in 10.0 mi Calm Calm - N/A   Clear
4:13 AM 63.3 °F - 61.9 °F 95% 29.95 in 10.0 mi Calm Calm - N/A   Clear
4:33 AM 63.5 °F - 62.1 °F 95% 29.96 in 10.0 mi Calm Calm - N/A   Clear
4:53 AM 63.7 °F - 61.7 °F 93% 29.96 in 10.0 mi Calm Calm - N/A   Clear
5:12 AM 64.4 °F - 61.7 °F 91% 29.96 in 10.0 mi Calm Calm - N/A   Clear
5:33 AM 64.0 °F - 61.3 °F 91% 29.97 in 10.0 mi Calm Calm - N/A   Clear
5:53 AM 63.1 °F - 61.0 °F 93% 29.97 in 10.0 mi Calm Calm - N/A   Clear
6:12 AM 63.5 °F - 61.3 °F 93% 29.97 in 10.0 mi Calm Calm - N/A   Clear
6:33 AM 63.9 °F - 61.7 °F 93% 29.97 in 10.0 mi Calm Calm - N/A   Scattered Clouds
6:53 AM 64.4 °F - 62.6 °F 94% 29.97 in 4.0 mi NE 6.9 mph - N/A   Mostly Cloudy
7:12 AM 64.8 °F - 63.7 °F 96% 29.97 in 0.5 mi NE 5.8 mph - N/A Fog Fog
7:33 AM 65.7 °F - 64.6 °F 96% 29.98 in 4.0 mi NNE 6.9 mph - N/A   Overcast
7:53 AM 66.2 °F - 64.8 °F 95% 29.99 in 5.0 mi NE 6.9 mph - N/A   Mostly Cloudy
8:13 AM 66.6 °F - 64.9 °F 95% 30.00 in 7.0 mi NNE 5.8 mph - N/A   Mostly Cloudy
8:32 AM 68.4 °F - 65.1 °F 89% 30.01 in 7.0 mi NE 6.9 mph - N/A   Mostly Cloudy
8:53 AM 69.1 °F - 65.7 °F 89% 30.02 in 7.0 mi NNE 4.6 mph - N/A   Mostly Cloudy
9:13 AM 69.3 °F - 65.3 °F 87% 30.02 in 10.0 mi NE 4.6 mph - N/A   Mostly Cloudy
9:33 AM 70.3 °F - 64.9 °F 83% 30.03 in 10.0 mi ENE 4.6 mph - N/A   Mostly Cloudy
9:53 AM 69.8 °F - 65.1 °F 85% 30.03 in 10.0 mi NNE 4.6 mph - N/A   Mostly Cloudy
10:13 AM 71.2 °F - 64.9 °F 80% 30.04 in 10.0 mi East 5.8 mph - N/A   Mostly Cloudy
10:33 AM 71.1 °F - 64.6 °F 80% 30.04 in 10.0 mi ESE 3.5 mph - N/A   Scattered Clouds
10:53 AM 72.3 °F - 65.1 °F 78% 30.04 in 10.0 mi ENE 4.6 mph - N/A   Mostly Cloudy
11:13 AM 73.6 °F - 65.5 °F 76% 30.03 in 10.0 mi East 8.1 mph - N/A   Scattered Clouds
11:32 AM 73.4 °F - 65.7 °F 77% 30.03 in 10.0 mi East 5.8 mph - N/A   Clear
11:53 AM 74.7 °F - 65.7 °F 73% 30.03 in 10.0 mi Calm Calm - N/A   Clear
12:13 PM 75.7 °F - 66.4 °F 73% 30.02 in 10.0 mi SE 5.8 mph - N/A   Clear
12:32 PM 76.6 °F - 66.9 °F 72% 30.02 in 10.0 mi ENE 4.6 mph - N/A   Clear
12:53 PM 77.0 °F - 66.2 °F 69% 30.02 in 10.0 mi Calm Calm - N/A   Clear
1:13 PM 79.5 °F - 65.5 °F 62% 30.01 in 10.0 mi Calm Calm - N/A   Clear
1:32 PM 79.2 °F - 66.2 °F 64% 30.02 in 10.0 mi Calm Calm - N/A   Clear
1:53 PM 80.4 °F 82.4 °F 66.0 °F 61% 30.02 in 7.0 mi Calm Calm - N/A   Clear
2:13 PM 81.5 °F 83.3 °F 64.9 °F 57% 30.01 in 10.0 mi Calm Calm - N/A   Clear
2:33 PM 81.5 °F 82.7 °F 63.0 °F 53% 30.00 in 10.0 mi Calm Calm - N/A   Clear
2:53 PM 79.9 °F - 64.4 °F 59% 30.00 in 10.0 mi SSE 4.6 mph - N/A   Clear
3:12 PM 79.5 °F - 61.3 °F 54% 29.99 in 10.0 mi SSE 3.5 mph - N/A   Clear
3:33 PM 81.9 °F 82.8 °F 62.2 °F 51% 29.99 in 10.0 mi Calm Calm - N/A   Clear
3:53 PM 82.4 °F 82.6 °F 59.9 °F 46% 29.99 in 10.0 mi SE 3.5 mph - N/A   Clear
4:13 PM 82.2 °F 82.6 °F 59.9 °F 47% 29.99 in 10.0 mi Calm Calm - N/A   Clear
4:32 PM 83.5 °F 83.7 °F 60.6 °F 46% 29.99 in 10.0 mi Calm Calm - N/A   Clear
4:53 PM 83.7 °F 83.3 °F 58.1 °F 42% 29.99 in 10.0 mi Calm Calm - N/A   Clear
5:13 PM 84.2 °F 84.4 °F 60.4 °F 45% 29.99 in 10.0 mi Calm Calm - N/A   Clear
5:32 PM 83.5 °F 83.7 °F 60.8 °F 46% 29.98 in 7.0 mi Calm Calm - N/A   Clear
5:53 PM 83.8 °F 83.8 °F 59.5 °F 44% 29.98 in 10.0 mi Calm Calm - N/A   Clear
6:13 PM 83.5 °F - 52.9 °F 35% 29.98 in 10.0 mi ESE 4.6 mph - N/A   Clear
6:33 PM 82.6 °F 82.5 °F 58.5 °F 44% 29.98 in 10.0 mi SSE 3.5 mph - N/A   Clear
6:53 PM 81.5 °F 81.7 °F 58.6 °F 46% 29.97 in 7.0 mi Calm Calm - N/A   Clear
7:12 PM 81.5 °F 81.7 °F 58.8 °F 46% 29.97 in 10.0 mi Calm Calm - N/A   Clear
7:33 PM 80.8 °F 81.1 °F 58.1 °F 46% 29.97 in 10.0 mi Calm Calm - N/A   Clear
7:53 PM 81.3 °F 81.7 °F 59.4 °F 47% 29.96 in 7.0 mi Calm Calm - N/A   Clear
8:12 PM 82.0 °F 82.1 °F 58.8 °F 45% 29.96 in 7.0 mi Calm Calm - N/A   Clear
8:33 PM 81.3 °F 81.9 °F 60.3 °F 49% 29.95 in 10.0 mi East 3.5 mph - N/A   Clear
8:53 PM 79.5 °F - 62.8 °F 56% 29.96 in 7.0 mi ESE 3.5 mph - N/A   Clear
9:13 PM 78.8 °F - 63.9 °F 60% 29.95 in 10.0 mi East 3.5 mph - N/A   Clear
9:33 PM 77.7 °F - 65.1 °F 65% 29.95 in 7.0 mi Calm Calm - N/A   Clear
9:53 PM 76.5 °F - 65.3 °F 68% 29.96 in 10.0 mi Calm Calm - N/A   Clear
10:13 PM 74.7 °F - 65.3 °F 73% 29.97 in 10.0 mi ESE 4.6 mph - N/A   Clear
10:32 PM 74.8 °F - 64.8 °F 71% 29.97 in 10.0 mi SE 4.6 mph - N/A   Clear
10:53 PM 75.2 °F - 64.4 °F 69% 29.98 in 7.0 mi Calm Calm - N/A   Clear
11:13 PM 75.4 °F - 63.9 °F 67% 29.98 in 7.0 mi Calm Calm - N/A   Clear
11:33 PM 74.7 °F - 64.4 °F 70% 29.98 in 10.0 mi East 3.5 mph - N/A   Clear
11:52 PM 74.3 °F - 65.1 °F 73% 29.97 in 10.0 mi East 3.5 mph - N/A   Clear